Voltar ao catálogo

STARLINK-30358

AtivoComunicaçõesVLEO
NORAD 57879·PAYLOAD·🇺🇸 United States

Lançado Sep 16, 2023 de Cape Canaveral Space Force Station

Loading…

Próximas Passagens (próximas 24 horas)

TLE

AtualizadoSource: CelesTrak SupGP

Época: Sep 14, 2026, 20:35 UTC

1 57879C 23144R   26257.85812500 -.00048165  00000+0 -17447-2 0  2578
2 57879  43.0008 296.5807 0001470 265.0902  28.0340 15.27598850    14

Acompanhe STARLINK-30358 em tempo real com AllMySat

Download on the App Store